Flag for U.S.A. Weather past 2 weeks in Scottsdale, Arizona, U.S.A.

Now
105 °F

Sunny.


Feels Like: 103 °F
Forecast: 81 / 102 °F
Wind: 6 mph from North

Location: Scottsdale Airport

Current Time: Jul 30, 2014 at 1:45:51 PM

Latest Report: Jul 30, 2014 at 12:53 PM


Visibility: 10 mi

Pressure: 29.80 "Hg

Humidity: 17%

Dew point: 52 °F

Location of ScottsdaleLocation

Historic Weather in Scottsdale — Graph

°F

Scottsdale temperature yesterday

Maximum temperature yesterday: 106 °F (at 2:53 PM)
Minimum temperature yesterday: 85 °F (at 5:53 AM)
Average temperature yesterday: 97 °F

Past Weeks' High & Low Weather Summary

 TemperatureHumidityPressure
High111 °F (Jul 24, 4:53 PM)76% (Jul 15, 3:53 PM)30.09 "Hg (Jul 15, 3:53 PM)
Low80 °F (Jul 15, 3:53 PM)10% (Jul 17, 2:53 PM)29.65 "Hg (Jul 24, 5:53 PM)
Average94 °F28%29.83 "Hg
* Reported Jul 15 12:53 PM — Jul 30 12:53 PM, Scottsdale, Weather by CustomWeather, © 2014

Note: Actual official high and low records may vary slightly from our data, if they occured in-between our weather recording intervals... More about our weather records

Advertising

Scottsdale weather history for previous 24 hours

 ConditionsComfort  
Time TempWeatherWind HumidityBarometerVisibility
12:53 PM
Jul 30
105 °FSunny.6 mph17%29.80 "Hg10 mi
11:53 AM102 °FSunny.3 mph21%29.82 "Hg10 mi
10:53 AM101 °FSunny.3 mph22%29.84 "Hg10 mi
9:53 AM97 °FSunny.3 mph24%29.84 "Hg10 mi
8:53 AM94 °FSunny.3 mph28%29.84 "Hg10 mi
7:53 AM91 °FSunny.3 mph34%29.83 "Hg10 mi
6:53 AM88 °FSunny.No wind39%29.82 "Hg10 mi
5:53 AM88 °FSunny.No wind36%29.80 "Hg10 mi
4:53 AM89 °FClear.No wind35%29.80 "Hg10 mi
3:53 AM89 °FClear.No wind35%29.79 "Hg10 mi
2:53 AM92 °FClear.No wind30%29.79 "Hg10 mi
12:53 AM94 °FClear.No wind26%29.79 "Hg10 mi
11:53 PM
Jul 29
96 °FClear.No wind23%29.80 "Hg10 mi
10:53 PM97 °FClear.No wind22%29.80 "Hg10 mi
9:53 PM99 °FClear.No wind21%29.79 "Hg10 mi
8:53 PM100 °FClear.5 mph19%29.78 "Hg10 mi
7:53 PM102 °FClear.6 mph18%29.76 "Hg10 mi
6:53 PM103 °FSunny.7 mph19%29.75 "Hg10 mi
5:53 PM105 °FSunny.7 mph17%29.76 "Hg10 mi
4:53 PM105 °FSunny.8 mph18%29.78 "Hg10 mi
3:53 PM105 °FSunny.10 mph17%29.79 "Hg10 mi
2:53 PM106 °FSunny.15 mph17%29.81 "Hg10 mi
1:53 PM104 °FSunny.14 mph20%29.84 "Hg10 mi
Weather by CustomWeather, © 2014

See weather overviewHow to use our weather pages